Location: Santa Cristina
(46.5667°N, 11.7167°E)
Time: 04:49:45
(UTC+00:00)

CZ-2C R/B - Pass Details

Date: 21 April 2021
Orbit: 668 x 784 km, 98.2° (Epoch: 10 May)

Event Time Altitude Azimuth Distance (km) Brightness Sun altitude
Rises 02:47:21 0° 17° (NNE) 3,089 6.5 -14.3°
Reaches altitude 10° 02:49:38 10° 22° (NNE) 2,183 5.7 -14.0°
Maximum altitude 02:54:21 57° 101° (E) 853 3.0 -13.3°
Drops below altitude 10° 02:59:11 10° 180° (S) 2,239 4.6 -12.6°
Enters shadow 03:01:22 - 184° (S) 3,108 5.3 -12.3°
